sat.trackr.live / text

‹ back to catalog

TIANMU-1 04

NORAD 55974 · 2023-039B

PAYLOAD ACTIVE UNKNOWN

§ Identity

Operator
Country
PRC
Launch date
2023-03-22
Launch site
JSC
Launch vehicle
Mass (kg)
RCS (m²)

Purposes: earth_obs

External: N2YO · Heavens-Above · Gunter

§ Orbital elements

Epoch: 2026-05-25T05:08:16.177632Z

Period
93.08 min
Inclination
97.5167°
Eccentricity
0.0004266
Mean motion
15.47110792 rev/d
Perigee alt
422.3 km
Apogee alt
428.1 km
Semi-major
6,803.3 km
B*
3.0187e-4
RAAN
317.4506°
Arg perigee
157.8306°
Mean anomaly
202.3128°
Rev number
17,729

§ Raw data

TIANMU-1 041 55974U 23039B   26145.21407613  .00015217  00000+0  30187-3 0  99962 55974  97.5167 317.4506 0004266 157.8306 202.3128 15.47110792177292

JSON: /api/v1/satellites/55974 · /tle

For live sub-satellite position, see the globe view (requires WebGL).

§ Visibility from observer

Set your observer location to see the next 7 days of passes ≥ 10°. The values pass through the URL so the page stays shareable.

No JS? Fill the form by hand. The geolocation button needs JavaScript.